Location: Aranbee
(34.0885°N, 118.2342°W)
Time: 09:47:02
(UTC+00:00)

Courier 1B Rocket - Pass Details

Date: 29 November 2020
Orbit: 920 x 1202 km, 28.2° (Epoch: 27 January)

Event Time Altitude Azimuth Distance (km) Brightness Sun altitude
Rises 16:29:25 0° 268° (W) 4,078 7.8 18.0°
Reaches altitude 10° 16:32:24 10° 263° (W) 3,094 7.3 18.4°
Maximum altitude 16:39:43 49° 191° (SSW) 1,438 6.6 19.5°
Drops below altitude 10° 16:46:38 10° 119° (ESE) 2,922 9.2 20.5°
Sets 16:49:23 0° 114° (ESE) 3,834 9.3 20.9°
